User: anonymous   Login
Location: *
(90.0000°N, 180.0000°W)
Time: 03:40:17
(UTC+01:00)
Language:

Cosmos 1825 - Orbit

View from above orbital plane
View from above orbital plane
View from above satellite
View from above satellite

Ground track
Ground track

The orbit data is extracted from the following two-line orbital elements,

1 17566U 87024A   14327.03113754  .00007425  00000-0  41120-3 0  1527
2 17566 082.5041 136.8619 0003563 212.8517 147.2493 15.13675815511766
Epoch (UTC): 23 November 2014 00:44:50
Eccentricity: 0.0003563
inclination: 82.5041°
perigee height: 522 km
apogee height: 527 km
right ascension of ascending node: 136.8619°
argument of perigee: 212.8517°
revolutions per day: 15.13675815
mean anomaly at epoch: 147.2493°
orbit number at epoch: 51176

The dashed part of the orbit path shows where the satellite is in the earth's shadow,  

DLR